Time,TemperatureF,DewpointF,PressureIn,WindDirection,WindDirectionDegrees,WindSpeedMPH,WindSpeedGustMPH,Humidity,HourlyPrecipIn,Conditions,Clouds,dailyrainin,SoftwareType,DateUTC
2013-01-11 00:04:00,35.0,32.0,30.56,NE,44,0.0,28.0,88,0.00,,,0.00,,2013-01-11 05:04:00,
2013-01-11 00:13:00,33.0,31.0,30.55,NE,52,0.0,28.0,93,0.00,,,0.00,,2013-01-11 05:13:00,
2013-01-11 00:22:00,33.0,31.0,30.55,NE,52,0.0,28.0,93,0.00,,,0.00,,2013-01-11 05:22:00,
2013-01-11 00:33:00,33.0,31.0,30.55,NE,52,0.0,28.0,93,0.00,,,0.00,,2013-01-11 05:33:00,
2013-01-11 00:43:00,33.0,31.0,30.55,NE,52,0.0,28.0,93,0.00,,,0.00,,2013-01-11 05:43:00,
2013-01-11 00:52:00,33.0,31.0,30.55,North,6,0.0,6.0,92,0.00,,,0.00,,2013-01-11 05:52:00,
2013-01-11 01:03:00,33.0,31.0,30.55,North,6,0.0,6.0,92,0.00,,,0.00,,2013-01-11 06:03:00,
2013-01-11 01:12:00,33.0,31.0,30.55,North,6,0.0,6.0,92,0.00,,,0.00,,2013-01-11 06:12:00,
2013-01-11 01:22:00,33.0,31.0,30.55,North,0,0.0,6.0,92,0.00,,,0.00,,2013-01-11 06:22:00,
2013-01-11 01:32:00,33.0,31.0,30.55,North,0,0.0,6.0,92,0.00,,,0.00,,2013-01-11 06:32:00,
2013-01-11 01:42:00,33.0,31.0,30.55,North,0,0.0,6.0,92,0.00,,,0.00,,2013-01-11 06:42:00,
2013-01-11 01:52:00,33.0,31.0,30.54,North,11,2.0,9.0,92,0.00,,,0.00,,2013-01-11 06:52:00,
2013-01-11 02:02:00,33.0,31.0,30.54,North,11,2.0,9.0,92,0.00,,,0.00,,2013-01-11 07:02:00,
2013-01-11 02:12:00,33.0,31.0,30.55,North,0,0.0,9.0,91,0.00,,,0.00,,2013-01-11 07:12:00,
2013-01-11 02:22:00,33.0,31.0,30.55,North,0,0.0,9.0,91,0.00,,,0.00,,2013-01-11 07:22:00,
2013-01-11 02:32:00,33.0,31.0,30.55,North,0,0.0,9.0,91,0.00,,,0.00,,2013-01-11 07:32:00,
2013-01-11 02:42:00,33.0,31.0,30.55,North,0,0.0,9.0,91,0.00,,,0.00,,2013-01-11 07:42:00,
2013-01-11 02:52:00,33.0,31.0,30.55,North,0,0.0,9.0,91,0.00,,,0.00,,2013-01-11 07:52:00,
2013-01-11 03:12:00,32.0,30.0,30.54,North,359,0.0,9.0,92,0.00,,,0.00,,2013-01-11 08:12:00,
2013-01-11 03:22:00,32.0,30.0,30.54,North,359,0.0,9.0,92,0.00,,,0.00,,2013-01-11 08:22:00,
2013-01-11 03:32:00,32.0,30.0,30.54,North,359,0.0,9.0,92,0.00,,,0.00,,2013-01-11 08:32:00,
2013-01-11 03:42:00,32.0,30.0,30.54,North,359,0.0,9.0,92,0.00,,,0.00,,2013-01-11 08:42:00,
2013-01-11 03:52:00,32.0,30.0,30.53,NW,320,0.0,9.0,93,0.00,,,0.00,,2013-01-11 08:52:00,
2013-01-11 04:02:00,32.0,30.0,30.53,NW,320,0.0,9.0,93,0.00,,,0.00,,2013-01-11 09:02:00,
2013-01-11 04:12:00,32.0,30.0,30.53,NW,320,0.0,9.0,93,0.00,,,0.00,,2013-01-11 09:12:00,
2013-01-11 04:23:00,30.0,29.0,30.52,NW,320,0.0,9.0,95,0.00,,,0.00,,2013-01-11 09:23:00,
2013-01-11 04:32:00,30.0,29.0,30.52,NW,320,0.0,9.0,95,0.00,,,0.00,,2013-01-11 09:32:00,
2013-01-11 04:42:00,30.0,29.0,30.52,NW,320,0.0,9.0,95,0.00,,,0.00,,2013-01-11 09:42:00,
2013-01-11 04:52:00,29.0,29.0,30.51,NW,320,0.0,9.0,99,0.00,,,0.00,,2013-01-11 09:52:00,
2013-01-11 05:02:00,29.0,29.0,30.51,NW,320,0.0,9.0,99,0.00,,,0.00,,2013-01-11 10:02:00,
2013-01-11 05:12:00,29.0,29.0,30.51,NW,320,0.0,9.0,99,0.00,,,0.00,,2013-01-11 10:12:00,
2013-01-11 05:22:00,30.0,29.0,30.50,North,1,0.0,9.0,98,0.00,,,0.00,,2013-01-11 10:22:00,
2013-01-11 05:32:00,30.0,29.0,30.50,North,1,0.0,9.0,98,0.00,,,0.00,,2013-01-11 10:32:00,
2013-01-11 05:42:00,30.0,29.0,30.50,North,1,0.0,9.0,98,0.00,,,0.00,,2013-01-11 10:42:00,
2013-01-11 05:52:00,30.0,29.0,30.50,North,1,0.0,9.0,96,0.00,,,0.00,,2013-01-11 10:52:00,
2013-01-11 06:03:00,30.0,29.0,30.50,North,1,0.0,9.0,96,0.00,,,0.00,,2013-01-11 11:03:00,
2013-01-11 06:12:00,30.0,29.0,30.50,North,1,0.0,9.0,96,0.00,,,0.00,,2013-01-11 11:12:00,
2013-01-11 06:22:00,30.0,29.0,30.51,North,1,0.0,9.0,98,0.00,,,0.00,,2013-01-11 11:22:00,
2013-01-11 06:33:00,30.0,29.0,30.51,North,1,0.0,9.0,98,0.00,,,0.00,,2013-01-11 11:33:00,
2013-01-11 06:43:00,30.0,29.0,30.51,North,1,0.0,9.0,98,0.00,,,0.00,,2013-01-11 11:43:00,
2013-01-11 06:53:00,30.0,29.0,30.51,North,1,0.0,9.0,98,0.00,,,0.00,,2013-01-11 11:53:00,
2013-01-11 07:23:00,31.0,30.0,30.52,NNE,31,0.0,9.0,97,0.00,,,0.00,,2013-01-11 12:23:00,
2013-01-11 07:33:00,31.0,30.0,30.52,NNE,31,0.0,9.0,97,0.00,,,0.00,,2013-01-11 12:33:00,
2013-01-11 07:43:00,31.0,30.0,30.52,NNE,31,0.0,9.0,97,0.00,,,0.00,,2013-01-11 12:43:00,
2013-01-11 07:52:00,31.0,30.0,30.53,NE,42,0.0,9.0,97,0.00,,,0.00,,2013-01-11 12:52:00,
2013-01-11 08:03:00,31.0,30.0,30.53,NE,42,0.0,9.0,97,0.00,,,0.00,,2013-01-11 13:03:00,
2013-01-11 08:13:00,31.0,30.0,30.53,NE,42,0.0,9.0,97,0.00,,,0.00,,2013-01-11 13:13:00,
2013-01-11 08:22:00,31.0,30.0,30.53,NE,42,0.0,9.0,96,0.00,,,0.00,,2013-01-11 13:22:00,
2013-01-11 08:33:00,31.0,30.0,30.53,NE,42,0.0,9.0,96,0.00,,,0.00,,2013-01-11 13:33:00,
2013-01-11 08:43:00,31.0,30.0,30.53,NE,42,0.0,9.0,96,0.00,,,0.00,,2013-01-11 13:43:00,
2013-01-11 08:52:00,31.0,31.0,30.53,NE,42,0.0,9.0,98,0.00,,,0.00,,2013-01-11 13:52:00,
2013-01-11 09:03:00,31.0,31.0,30.53,NE,42,0.0,9.0,98,0.00,,,0.00,,2013-01-11 14:03:00,
2013-01-11 09:12:00,31.0,31.0,30.53,NE,40,0.0,9.0,98,0.00,,,0.00,,2013-01-11 14:12:00,
2013-01-11 09:23:00,31.0,31.0,30.53,NE,40,0.0,9.0,98,0.00,,,0.00,,2013-01-11 14:23:00,
2013-01-11 09:33:00,31.0,31.0,30.53,NE,40,0.0,9.0,98,0.00,,,0.00,,2013-01-11 14:33:00,
2013-01-11 09:43:00,32.0,31.0,30.52,North,10,1.0,9.0,97,0.00,,,0.00,,2013-01-11 14:43:00,
2013-01-11 09:53:00,32.0,31.0,30.52,North,10,1.0,9.0,97,0.00,,,0.00,,2013-01-11 14:53:00,
2013-01-11 10:03:00,32.0,31.0,30.52,North,10,1.0,9.0,97,0.00,,,0.00,,2013-01-11 15:03:00,
2013-01-11 10:13:00,34.0,33.0,30.52,NE,38,0.0,9.0,95,0.00,,,0.00,,2013-01-11 15:13:00,
2013-01-11 10:23:00,34.0,33.0,30.52,NE,38,0.0,9.0,95,0.00,,,0.00,,2013-01-11 15:23:00,
2013-01-11 10:33:00,34.0,33.0,30.52,NE,38,0.0,9.0,95,0.00,,,0.00,,2013-01-11 15:33:00,
2013-01-11 10:43:00,34.0,33.0,30.52,NE,38,0.0,9.0,95,0.00,,,0.00,,2013-01-11 15:43:00,
2013-01-11 10:52:00,35.0,33.0,30.51,NE,37,0.0,9.0,94,0.00,,,0.00,,2013-01-11 15:52:00,
2013-01-11 11:03:00,35.0,33.0,30.51,NE,37,0.0,9.0,94,0.00,,,0.00,,2013-01-11 16:03:00,
2013-01-11 11:13:00,36.0,34.0,30.50,NE,37,0.0,9.0,93,0.00,,,0.00,,2013-01-11 16:13:00,
2013-01-11 11:23:00,36.0,34.0,30.50,NE,37,0.0,9.0,93,0.00,,,0.00,,2013-01-11 16:23:00,
2013-01-11 11:33:00,36.0,34.0,30.50,NE,37,0.0,9.0,93,0.00,,,0.00,,2013-01-11 16:33:00,
2013-01-11 11:43:00,36.0,34.0,30.48,NE,37,0.0,9.0,93,0.00,,,0.00,,2013-01-11 16:43:00,
2013-01-11 11:53:00,36.0,34.0,30.48,NE,37,0.0,9.0,93,0.00,,,0.00,,2013-01-11 16:53:00,
2013-01-11 12:03:00,36.0,34.0,30.48,NE,37,0.0,9.0,93,0.00,,,0.00,,2013-01-11 17:03:00,
2013-01-11 12:12:00,36.0,34.0,30.47,NE,37,0.0,9.0,93,0.00,,,0.00,,2013-01-11 17:12:00,
2013-01-11 12:22:00,36.0,34.0,30.47,NE,37,0.0,9.0,93,0.00,,,0.00,,2013-01-11 17:22:00,
2013-01-11 12:33:00,36.0,34.0,30.47,NE,37,0.0,9.0,93,0.00,,,0.00,,2013-01-11 17:33:00,
2013-01-11 12:43:00,36.0,34.0,30.47,NE,37,0.0,9.0,93,0.00,,,0.00,,2013-01-11 17:43:00,
2013-01-11 12:53:00,37.0,35.0,30.44,NE,37,0.0,9.0,93,0.00,,,0.00,,2013-01-11 17:53:00,
2013-01-11 13:04:00,37.0,35.0,30.44,NE,37,0.0,9.0,93,0.00,,,0.00,,2013-01-11 18:04:00,
2013-01-11 13:13:00,37.0,35.0,30.44,NE,37,0.0,9.0,93,0.00,,,0.00,,2013-01-11 18:13:00,
2013-01-11 13:23:00,38.0,36.0,30.43,NE,37,0.0,9.0,94,0.00,,,0.00,,2013-01-11 18:23:00,
2013-01-11 13:33:00,38.0,36.0,30.43,NE,37,0.0,9.0,94,0.00,,,0.00,,2013-01-11 18:33:00,
2013-01-11 13:43:00,38.0,36.0,30.43,NE,37,0.0,9.0,94,0.00,,,0.00,,2013-01-11 18:43:00,
2013-01-11 13:53:00,38.0,37.0,30.43,NE,56,0.0,9.0,95,0.00,,,0.00,,2013-01-11 18:53:00,
2013-01-11 14:03:00,38.0,37.0,30.43,NE,56,0.0,9.0,95,0.00,,,0.00,,2013-01-11 19:03:00,
2013-01-11 14:13:00,38.0,37.0,30.43,NE,56,0.0,9.0,95,0.00,,,0.00,,2013-01-11 19:13:00,
2013-01-11 14:22:00,38.0,37.0,30.42,NE,54,0.0,9.0,95,0.00,,,0.00,,2013-01-11 19:22:00,
2013-01-11 14:33:00,38.0,37.0,30.42,NE,54,0.0,9.0,95,0.00,,,0.00,,2013-01-11 19:33:00,
2013-01-11 14:43:00,38.0,37.0,30.42,NE,54,0.0,9.0,95,0.00,,,0.00,,2013-01-11 19:43:00,
2013-01-11 14:53:00,38.0,37.0,30.40,East,79,0.0,9.0,96,0.00,,,0.00,,2013-01-11 19:53:00,
2013-01-11 15:03:00,38.0,37.0,30.40,East,79,0.0,9.0,96,0.00,,,0.00,,2013-01-11 20:03:00,
2013-01-11 15:13:00,38.0,37.0,30.40,East,79,0.0,9.0,96,0.00,,,0.00,,2013-01-11 20:13:00,
2013-01-11 15:22:00,39.0,38.0,30.39,ENE,69,0.0,9.0,98,0.00,,,0.00,,2013-01-11 20:22:00,
2013-01-11 15:33:00,39.0,38.0,30.39,ENE,69,0.0,9.0,98,0.00,,,0.00,,2013-01-11 20:33:00,
2013-01-11 15:43:00,39.0,38.0,30.39,ENE,69,0.0,9.0,98,0.00,,,0.00,,2013-01-11 20:43:00,
2013-01-11 15:52:00,39.0,39.0,30.37,ESE,104,0.0,9.0,99,0.00,,,0.00,,2013-01-11 20:52:00,
2013-01-11 16:03:00,39.0,39.0,30.37,ESE,104,0.0,9.0,99,0.00,,,0.00,,2013-01-11 21:03:00,
2013-01-11 16:13:00,39.0,39.0,30.36,NE,48,0.0,9.0,99,0.00,,,0.00,,2013-01-11 21:13:00,
2013-01-11 16:23:00,39.0,39.0,30.36,NE,48,0.0,9.0,99,0.00,,,0.00,,2013-01-11 21:23:00,
2013-01-11 16:33:00,39.0,39.0,30.36,NE,48,0.0,9.0,99,0.00,,,0.00,,2013-01-11 21:33:00,
2013-01-11 16:43:00,39.0,39.0,30.36,NE,48,0.0,9.0,99,0.00,,,0.00,,2013-01-11 21:43:00,
2013-01-11 16:52:00,39.0,39.0,30.35,NE,48,0.0,9.0,99,0.00,,,0.00,,2013-01-11 21:52:00,
2013-01-11 17:03:00,39.0,39.0,30.35,NE,48,0.0,9.0,99,0.00,,,0.00,,2013-01-11 22:03:00,
2013-01-11 17:12:00,38.0,38.0,30.36,NE,48,0.0,9.0,99,0.00,,,0.00,,2013-01-11 22:12:00,
2013-01-11 17:22:00,38.0,38.0,30.36,NE,48,0.0,9.0,99,0.00,,,0.00,,2013-01-11 22:22:00,
2013-01-11 17:33:00,38.0,38.0,30.36,NE,48,0.0,9.0,99,0.00,,,0.00,,2013-01-11 22:33:00,
2013-01-11 17:42:00,38.0,38.0,30.36,NE,48,0.0,9.0,99,0.00,,,0.00,,2013-01-11 22:42:00,
2013-01-11 17:52:00,38.0,38.0,30.33,NE,48,0.0,9.0,99,0.00,,,0.00,,2013-01-11 22:52:00,
2013-01-11 18:03:00,38.0,38.0,30.33,NE,48,0.0,9.0,99,0.00,,,0.00,,2013-01-11 23:03:00,
2013-01-11 18:13:00,38.0,38.0,30.34,ENE,61,0.0,9.0,99,0.01,,,0.01,,2013-01-11 23:13:00,
2013-01-11 18:23:00,38.0,38.0,30.34,ENE,61,0.0,9.0,99,0.01,,,0.01,,2013-01-11 23:23:00,
2013-01-11 18:33:00,38.0,38.0,30.34,ENE,61,0.0,9.0,99,0.01,,,0.01,,2013-01-11 23:33:00,
2013-01-11 18:43:00,38.0,38.0,30.34,ENE,61,0.0,9.0,99,0.01,,,0.01,,2013-01-11 23:43:00,
2013-01-11 18:53:00,37.0,37.0,30.32,ENE,61,0.0,9.0,99,0.01,,,0.01,,2013-01-11 23:53:00,
2013-01-11 19:03:00,37.0,37.0,30.32,ENE,61,0.0,9.0,99,0.01,,,0.01,,2013-01-12 00:03:00,
2013-01-11 19:12:00,37.0,37.0,30.31,ENE,61,0.0,9.0,99,0.01,,,0.02,,2013-01-12 00:12:00,
2013-01-11 19:23:00,37.0,37.0,30.31,ENE,61,0.0,9.0,99,0.01,,,0.02,,2013-01-12 00:23:00,
2013-01-11 19:33:00,37.0,37.0,30.31,ENE,61,0.0,9.0,99,0.01,,,0.02,,2013-01-12 00:33:00,
2013-01-11 19:43:00,37.0,37.0,30.31,ENE,61,0.0,9.0,99,0.01,,,0.02,,2013-01-12 00:43:00,
2013-01-11 19:52:00,38.0,38.0,30.30,ENE,61,0.0,9.0,99,0.02,,,0.03,,2013-01-12 00:52:00,
2013-01-11 20:03:00,38.0,38.0,30.30,ENE,61,0.0,9.0,99,0.02,,,0.03,,2013-01-12 01:03:00,
2013-01-11 20:12:00,39.0,39.0,30.29,NE,55,0.0,9.0,99,0.03,,,0.05,,2013-01-12 01:12:00,
2013-01-11 20:22:00,39.0,39.0,30.29,NE,55,0.0,9.0,99,0.03,,,0.05,,2013-01-12 01:22:00,
2013-01-11 20:33:00,39.0,39.0,30.29,NE,55,0.0,9.0,99,0.03,,,0.05,,2013-01-12 01:33:00,
2013-01-11 20:43:00,39.0,39.0,30.29,NE,55,0.0,9.0,99,0.03,,,0.05,,2013-01-12 01:43:00,
2013-01-11 20:52:00,41.0,41.0,30.27,ESE,114,1.0,10.0,99,0.04,,,0.07,,2013-01-12 01:52:00,
2013-01-11 21:02:00,41.0,41.0,30.27,ESE,114,1.0,10.0,99,0.04,,,0.07,,2013-01-12 02:02:00,
2013-01-11 21:12:00,41.0,41.0,30.27,ESE,114,1.0,10.0,99,0.04,,,0.07,,2013-01-12 02:12:00,
2013-01-11 21:22:00,42.0,42.0,30.26,ESE,104,0.0,10.0,99,0.03,,,0.08,,2013-01-12 02:22:00,
2013-01-11 21:33:00,42.0,42.0,30.26,ESE,104,0.0,10.0,99,0.03,,,0.08,,2013-01-12 02:33:00,
2013-01-11 21:43:00,42.0,42.0,30.26,ESE,104,0.0,10.0,99,0.03,,,0.08,,2013-01-12 02:43:00,
2013-01-11 21:53:00,42.0,42.0,30.25,ESE,105,2.0,10.0,99,0.05,,,0.12,,2013-01-12 02:53:00,
2013-01-11 22:03:00,42.0,42.0,30.25,ESE,105,2.0,10.0,99,0.05,,,0.12,,2013-01-12 03:03:00,
2013-01-11 22:12:00,42.0,42.0,30.25,ESE,105,2.0,10.0,99,0.05,,,0.12,,2013-01-12 03:12:00,
2013-01-11 22:22:00,43.0,43.0,30.27,ESE,123,0.0,10.0,99,0.08,,,0.16,,2013-01-12 03:22:00,
2013-01-11 22:33:00,43.0,43.0,30.27,ESE,123,0.0,10.0,99,0.08,,,0.16,,2013-01-12 03:33:00,
2013-01-11 22:43:00,43.0,43.0,30.27,ESE,123,0.0,10.0,99,0.08,,,0.16,,2013-01-12 03:43:00,
2013-01-11 22:52:00,43.0,43.0,30.25,ESE,107,0.0,10.0,99,0.07,,,0.19,,2013-01-12 03:52:00,
2013-01-11 23:03:00,43.0,43.0,30.25,ESE,107,0.0,10.0,99,0.07,,,0.19,,2013-01-12 04:03:00,
2013-01-11 23:12:00,43.0,43.0,30.24,SE,132,1.0,11.0,99,0.05,,,0.21,,2013-01-12 04:12:00,
2013-01-11 23:22:00,43.0,43.0,30.24,SE,132,1.0,11.0,99,0.05,,,0.21,,2013-01-12 04:22:00,
2013-01-11 23:32:00,43.0,43.0,30.24,SE,132,1.0,11.0,99,0.05,,,0.21,,2013-01-12 04:32:00,
2013-01-11 23:42:00,43.0,43.0,30.24,SE,132,1.0,11.0,99,0.05,,,0.21,,2013-01-12 04:42:00,
2013-01-11 23:52:00,42.0,42.0,30.23,SE,126,2.0,11.0,99,0.02,,,0.21,,2013-01-12 04:52:00,